Morgantown, WV

7:20 AM EDT on September 20, 2017 (GMT -0400)
Morgantown Municipal-Hart

Weather History for KMGW - March, 2014

Change the Weather History Date:

Monday, March 3, 2014

  Actual Average Record
Temperature  
Mean Temperature 12 °F 38 °F  
Max Temperature 19 °F 47 °F 75 °F (1974)
Min Temperature 4 °F 28 °F 4 °F (2014)
Degree Days  
Heating Degree Days 53 27  
Month to date heating degree days 120 82  
Since 1 July heating degree days 4246 3971  
Cooling Degree Days 0 0  
Month to date cooling degree days 0 0  
Year to date cooling degree days 0 0  
Moisture  
Dew Point 3 °F    
Average Humidity 70    
Maximum Humidity 92    
Minimum Humidity 47    
Precipitation  
Precipitation 0.10 in 0.11 in 0.79 in (1971)
Month to date precipitation 0.52 0.32  
Year to date precipitation 5.69 5.73  
Sea Level Pressure  
Sea Level Pressure 30.28 in    
Wind  
Wind Speed 6 mph (North)    
Max Wind Speed 16 mph    
Max Gust Speed 21 mph    
Visibility 7 miles    
Events Snow    
T = Trace of Precipitation, MM = Missing Value Source: NWS Daily Summary

Daily Weather History Graph

Daily Weather History Graph

Search for Another Location

Airport or City:

Trip Planner

Search our weather history database for the weather conditions in past years. The results will help you decide how hot, cold, wet, or windy it might be!

Date:

Astronomy

Mar. 03, 2014 Rise Set
Actual Time 6:49 AM EST 6:14 PM EST
Civil Twilight 6:22 AM EST 6:41 PM EST
Nautical Twilight 5:51 AM EST 7:12 PM EST
Astronomical Twilight 5:20 AM EST 7:43 PM EST
Moon 7:57 AM EST (3/3) 9:14 PM EST (3/3)
Length of Visible Light 12h 18m
Length of Day
11h 24m
Waxing Crescent, 8% of the Moon is Illuminated
Mar 3
Waxing Crescent
Mar 8
First Quarter
Mar 16
Full
Mar 23
Last Quarter
Mar 30
New

Hourly Weather History & Observations

Time (EST) Temp. Windchill Dew Point Humidity Pressure Visibility Wind Dir Wind Speed Gust Speed Precip Events Conditions
12:38 AM 16.0 °F 2.3 °F 12.9 °F 88% 30.12 in 1.0 mi NNW 12.7 mph 18.4 mph 0.02 in Snow Light Snow
12:53 AM 15.1 °F 2.5 °F 12.0 °F 88% 30.18 in 1.2 mi North 10.4 mph 19.6 mph 0.03 in Snow Light Snow
1:19 AM 14.0 °F 0.5 °F 10.9 °F 88% 30.14 in 1.2 mi North 11.5 mph 18.4 mph 0.01 in Snow Light Snow
1:31 AM 14.0 °F 1.2 °F 10.9 °F 88% 30.14 in 1.0 mi North 10.4 mph - 0.02 in Snow Light Snow
1:53 AM 12.9 °F 2.6 °F 10.0 °F 88% 30.20 in 0.8 mi NNW 6.9 mph - 0.03 in Snow Light Snow
2:07 AM 12.9 °F 1.6 °F 10.0 °F 88% 30.14 in 1.0 mi NNW 8.1 mph - 0.01 in Snow Light Snow
2:40 AM 12.0 °F 0.5 °F 8.1 °F 84% 30.14 in 1.5 mi NNW 8.1 mph - 0.03 in Snow Light Snow
2:53 AM 12.0 °F -0.4 °F 8.1 °F 84% 30.21 in 1.8 mi North 9.2 mph - 0.03 in Snow Light Snow
3:37 AM 10.9 °F -0.8 °F 8.1 °F 88% 30.15 in 2.5 mi North 8.1 mph - 0.01 in Snow Light Snow
3:53 AM 10.9 °F 0.2 °F 8.1 °F 88% 30.21 in 1.8 mi North 6.9 mph - 0.01 in Snow Light Snow
4:09 AM 10.9 °F -4.1 °F 7.0 °F 84% 30.15 in 2.5 mi North 12.7 mph - 0.00 in Snow Light Snow
4:24 AM 10.9 °F -0.8 °F 6.1 °F 81% 30.16 in 3.0 mi North 8.1 mph - 0.00 in Snow Light Snow
4:53 AM 10.9 °F -1.8 °F 6.1 °F 81% 30.23 in 5.0 mi North 9.2 mph - 0.00 in   Haze
5:53 AM 10.0 °F -1.9 °F 1.0 °F 67% 30.26 in 9.0 mi North 8.1 mph - 0.00 in   Overcast
6:53 AM 10.0 °F -3.7 °F -2.9 °F 56% 30.27 in 10.0 mi NNE 10.4 mph - 0.00 in   Overcast
7:53 AM 9.0 °F -6.6 °F -6.0 °F 51% 30.29 in 10.0 mi NNE 12.7 mph - N/A   Overcast
8:53 AM 9.0 °F -5.1 °F -5.1 °F 53% 30.29 in 10.0 mi NNE 10.4 mph - N/A   Overcast
9:53 AM 10.9 °F -1.8 °F -4.0 °F 51% 30.32 in 10.0 mi North 9.2 mph - N/A   Mostly Cloudy
10:53 AM 10.0 °F 0.4 °F -2.9 °F 56% 30.32 in 10.0 mi NNE 5.8 mph - N/A   Mostly Cloudy
11:53 AM 10.9 °F -0.8 °F -2.9 °F 54% 30.34 in 10.0 mi North 8.1 mph - N/A   Mostly Cloudy
12:53 PM 12.0 °F -1.3 °F -2.9 °F 51% 30.34 in 10.0 mi North 10.4 mph - N/A   Clear
1:53 PM 14.0 °F 2.9 °F -2.0 °F 49% 30.32 in 10.0 mi NNE 8.1 mph - N/A   Mostly Cloudy
2:53 PM 16.0 °F 4.4 °F -0.0 °F 49% 30.35 in 10.0 mi NNW 9.2 mph - N/A   Mostly Cloudy
3:53 PM 16.0 °F 8.8 °F -0.9 °F 47% 30.34 in 10.0 mi NE 4.6 mph - N/A   Clear
4:53 PM 18.0 °F 12.7 °F -0.0 °F 45% 30.36 in 10.0 mi NW 3.5 mph - N/A   Clear
5:53 PM 16.0 °F - -0.9 °F 47% 30.38 in 10.0 mi Calm Calm - N/A   Clear
6:53 PM 15.1 °F - -0.0 °F 51% 30.40 in 10.0 mi Calm Calm - N/A   Clear
7:53 PM 12.9 °F - 1.0 °F 59% 30.40 in 10.0 mi Calm Calm - N/A   Clear
8:53 PM 10.9 °F - 1.0 °F 64% 30.42 in 10.0 mi Calm Calm - N/A   Clear
9:53 PM 7.0 °F - 1.0 °F 77% 30.42 in 10.0 mi Calm Calm - N/A   Clear
10:53 PM 5.0 °F - -0.0 °F 80% 30.42 in 10.0 mi Calm Calm - N/A   Clear
11:53 PM 6.1 °F - -0.9 °F 73% 30.41 in 10.0 mi Calm Calm - N/A   Clear